Evergreen, AL

12:49 PM CST on November 23, 2017 (GMT -0600)
Middleton

Weather History for KGZH - August, 2013

Change the Weather History Date:

Saturday, August 17, 2013

  Actual Average (KPRN) Record (KPRN)
Temperature  
Mean Temperature 73 °F -  
Max Temperature 75 °F 91 °F 101 °F (1954)
Min Temperature 71 °F 69 °F 62 °F (1929)
Cooling Degree Days 8    
Growing Degree Days 23 (Base 50)    
Moisture  
Dew Point 70 °F    
Average Humidity 90    
Maximum Humidity 94    
Minimum Humidity 83    
Precipitation  
Precipitation 0.19 in - - ()
Sea Level Pressure  
Sea Level Pressure 30.04 in    
Wind  
Wind Speed 4 mph (ENE)    
Max Wind Speed 7 mph    
Max Gust Speed -    
Visibility 8 miles    
Events Rain    
Averages and records for this station are not official NWS values.
T = Trace of Precipitation, MM = Missing Value Source: NWS Daily Summary

Daily Weather History Graph

Daily Weather History Graph

Search for Another Location

Airport or City:

Trip Planner

Search our weather history database for the weather conditions in past years. The results will help you decide how hot, cold, wet, or windy it might be!

Date:

Astronomy

Aug. 17, 2013 Rise Set
Actual Time 6:14 AM CDT 7:28 PM CDT
Civil Twilight 5:49 AM CDT 7:54 PM CDT
Nautical Twilight 5:19 AM CDT 8:24 PM CDT
Astronomical Twilight 4:47 AM CDT 8:55 PM CDT
Moon 4:37 PM CDT (8/17) 2:24 AM CDT (8/17)
Length of Visible Light 14h 04m
Length of Day
13h 13m
Waxing Gibbous, 84% of the Moon is Illuminated
Aug 17
Waxing Gibbous
Aug 20
Full
Aug 28
Last Quarter
Sep 5
New
Sep 12
First Quarter

Hourly Weather History & Observations

Time (CDT) Temp. Dew Point Humidity Pressure Visibility Wind Dir Wind Speed Gust Speed Precip Events Conditions
12:53 AM 73.0 °F 69.1 °F 87% 30.04 in 10.0 mi ENE 4.6 mph - N/A   Overcast
1:33 AM 71.6 °F 69.8 °F 94% 30.03 in 8.0 mi NNE 3.5 mph - N/A   Mostly Cloudy
1:44 AM 71.6 °F 69.8 °F 94% 30.03 in 8.0 mi NE 3.5 mph - N/A   Overcast
1:53 AM 72.0 °F 69.1 °F 91% 30.02 in 8.0 mi ENE 3.5 mph - N/A   Overcast
2:53 AM 72.0 °F 69.1 °F 91% 29.99 in 8.0 mi ENE 3.5 mph - N/A   Overcast
3:53 AM 72.0 °F 69.1 °F 91% 30.00 in 8.0 mi Variable 4.6 mph - 0.00 in Rain Light Rain
4:53 AM 72.0 °F 69.1 °F 91% 30.00 in 6.0 mi East 5.8 mph - 0.02 in Rain Light Rain
5:23 AM 71.6 °F 69.8 °F 94% 30.01 in 8.0 mi Variable 4.6 mph - 0.00 in   Overcast
5:53 AM 72.0 °F 69.1 °F 91% 30.00 in 7.0 mi NE 4.6 mph - 0.00 in   Overcast
6:53 AM 72.0 °F 69.1 °F 91% 30.01 in 9.0 mi East 4.6 mph - 0.00 in Rain Light Rain
7:07 AM 71.6 °F 69.8 °F 94% 30.03 in 9.0 mi East 5.8 mph - 0.00 in Rain Light Rain
7:33 AM 71.6 °F 69.8 °F 94% 30.03 in 7.0 mi NE 3.5 mph - 0.00 in Rain Light Rain
7:53 AM 71.1 °F 69.1 °F 93% 30.04 in 5.0 mi NE 5.8 mph - 0.01 in Rain Light Rain
8:32 AM 71.6 °F 69.8 °F 94% 30.04 in 9.0 mi ENE 5.8 mph - 0.03 in Rain Light Rain
8:53 AM 72.0 °F 69.1 °F 91% 30.04 in 6.0 mi North 4.6 mph - 0.03 in   Overcast
9:00 AM 71.6 °F 69.8 °F 94% 30.04 in 7.0 mi NNE 5.8 mph - N/A   Overcast
9:53 AM 72.0 °F 69.1 °F 91% 30.05 in 8.0 mi NNE 5.8 mph - N/A   Overcast
10:53 AM 72.0 °F 69.1 °F 91% 30.05 in 7.0 mi NNE 3.5 mph - 0.01 in Rain Rain
11:17 AM 71.6 °F 69.8 °F 94% 30.04 in 7.0 mi NNE 4.6 mph - 0.01 in Rain Light Rain
11:53 AM 73.0 °F 70.0 °F 90% 30.04 in 10.0 mi ENE 4.6 mph - 0.02 in   Overcast
12:53 PM 73.9 °F 70.0 °F 87% 30.05 in 10.0 mi Variable 4.6 mph - 0.00 in   Overcast
1:18 PM 75.2 °F 69.8 °F 83% 30.04 in 10.0 mi East 6.9 mph - N/A   Overcast
1:53 PM 75.0 °F 70.0 °F 84% 30.04 in 10.0 mi ENE 3.5 mph - N/A   Overcast
2:01 PM 75.2 °F 69.8 °F 83% 30.05 in 10.0 mi ENE 5.8 mph - N/A   Overcast
2:11 PM 75.2 °F 69.8 °F 83% 30.05 in 10.0 mi ENE 6.9 mph - N/A   Overcast
2:53 PM 75.0 °F 70.0 °F 84% 30.03 in 10.0 mi NE 5.8 mph - N/A   Overcast
3:14 PM 73.4 °F 69.8 °F 88% 30.04 in 2.5 mi NE 5.8 mph - 0.02 in Rain Heavy Rain
3:21 PM 73.4 °F 69.8 °F 88% 30.05 in 1.8 mi ENE 6.9 mph - 0.07 in Rain Rain
3:29 PM 73.4 °F 69.8 °F 88% 30.05 in 2.5 mi ENE 4.6 mph - 0.07 in Rain Light Rain
3:36 PM 73.4 °F 71.6 °F 94% 30.05 in 10.0 mi East 3.5 mph - 0.07 in   Overcast
3:53 PM 73.9 °F 71.1 °F 91% 30.03 in 10.0 mi East 5.8 mph - 0.07 in   Overcast
4:23 PM 73.4 °F 71.6 °F 94% 30.03 in 10.0 mi East 6.9 mph - 0.01 in Rain Light Rain
4:49 PM 73.4 °F 71.6 °F 94% 30.03 in 10.0 mi ENE 3.5 mph - 0.01 in Rain Light Rain
4:53 PM 73.9 °F 71.1 °F 91% 30.02 in 10.0 mi NE 4.6 mph - 0.01 in Rain Light Rain
5:53 PM 73.9 °F 70.0 °F 87% 30.03 in 10.0 mi East 4.6 mph - 0.00 in   Overcast
6:43 PM 73.4 °F 69.8 °F 88% 30.05 in 10.0 mi East 3.5 mph - N/A   Overcast
6:53 PM 73.9 °F 70.0 °F 87% 30.04 in 10.0 mi East 3.5 mph - N/A   Overcast
7:13 PM 73.4 °F 69.8 °F 88% 30.06 in 10.0 mi Calm Calm - 0.00 in   Overcast
7:24 PM 73.4 °F 69.8 °F 88% 30.06 in 10.0 mi Calm Calm - 0.00 in   Overcast
7:34 PM 73.4 °F 69.8 °F 88% 30.06 in 10.0 mi Calm Calm - 0.00 in   Overcast
7:53 PM 73.0 °F 70.0 °F 90% 30.06 in 10.0 mi ESE 4.6 mph - 0.00 in   Overcast
8:04 PM 73.4 °F 69.8 °F 88% 30.06 in 10.0 mi ESE 3.5 mph - N/A   Overcast
8:53 PM 72.0 °F 70.0 °F 93% 30.03 in 10.0 mi ENE 5.8 mph - 0.00 in   Overcast
9:27 PM 71.6 °F 69.8 °F 94% 30.06 in 10.0 mi Calm Calm - N/A   Mostly Cloudy
9:53 PM 72.0 °F 70.0 °F 93% 30.05 in 10.0 mi East 3.5 mph - N/A   Mostly Cloudy
10:53 PM 72.0 °F 70.0 °F 93% 30.06 in 10.0 mi ESE 3.5 mph - N/A   Mostly Cloudy
11:00 PM 71.6 °F 69.8 °F 94% 30.07 in 9.0 mi ESE 4.6 mph - 0.00 in Rain Light Rain
11:24 PM 71.6 °F 69.8 °F 94% 30.05 in 10.0 mi East 6.9 mph - 0.01 in Rain Light Rain
11:53 PM 72.0 °F 69.1 °F 91% 30.04 in 8.0 mi Calm Calm - 0.02 in Rain Light Rain